Regional Weather Roundup
Issued by NWS

Home | Current Version | Previous Version | Text Only | Print | Product List | Glossary On
Versions: 1 2 3 4 5 6 7 8 9 10 11 12 13 14 15 16 17 18 19 20 21 22 23 24 25 26 27 28 29 30 31 32 33 34 35 36 37 38 39 40 41 42 43 44 45 46 47 48 49 50
000
ASUS44 KBMX 030910
RWRAL

ALABAMA REGIONAL WEATHER ROUNDUP
NATIONAL WEATHER SERVICE BIRMINGHAM AL
400 AM CDT SUN MAY 03 2015

NOTE: "FAIR" INDICATES FEW OR NO CLOUDS BELOW 12,000 FEET
WITH NO SIGNIFICANT WEATHER AND/OR OBSTRUCTIONS TO VISIBILITY.

THE REMARK "TC" DENOTES TEMPERATURE IN DEGREES CELSIUS.

ALZ001>011-014-016>018-020-031000-
NORTH ALABAMA

CITY           SKY/WX    TMP DP  RH WIND       PRES   REMARKS
MUSCLE SHOALS  CLEAR     50  47  89 CALM      30.09S FOG
HUNTSVILLE     CLEAR     54  50  86 E5        30.09R
DECATUR        CLEAR     50  50 100 CALM      30.09R
HALEYVILLE       N/A     47  47 100 MISG      30.11S
GADSDEN        CLEAR    N/A N/A N/A CALM      30.09R
$$

ALZ012-013-022-023-030>036-040>044-031000-
WEST CENTRAL ALABAMA

CITY           SKY/WX    TMP DP  RH WIND       PRES   REMARKS
TUSCALOOSA     CLEAR     52  50  93 CALM      30.08S
$$

ALZ015-024>027-033>036-040>044-031000-
CENTRAL ALABAMA

CITY           SKY/WX    TMP DP  RH WIND       PRES   REMARKS
BIRMINGHAM     CLEAR     53  50  89 CALM      30.10S
MONTGOMERY     CLEAR     53  50  89 CALM      30.09S
SHELBY CO ARPT CLEAR      1  32 100 CALM      30.09S
MAXWELL AFB    CLEAR     53  53  98 SW1       30.08R
GREENVILLE     FAIR      51  47  86 CALM      30.08S
$$

ALZ019-021-028-029-037-038-045>048-031000-
EAST CENTRAL ALABAMA

CITY           SKY/WX    TMP DP  RH WIND       PRES   REMARKS
ANNISTON       CLEAR     52  49  89 CALM      30.10S
ALEXANDER CITY CLEAR     48  44  88 CALM      30.10R
AUBURN         CLEAR    N/A N/A N/A CALM      30.10S
$$

ALZ051>064-031000-
SOUTHWEST ALABAMA

CITY           SKY/WX    TMP DP  RH WIND       PRES   REMARKS
MOBILE         CLEAR     54  52  93 CALM      30.08S
BROOKLEY FIELD CLEAR     55  53  93 CALM      30.09S
EVERGREEN      CLEAR     50  49  96 CALM      30.10R
$$

ALZ049-050-065>069-031000-
SOUTHEAST ALABAMA

CITY           SKY/WX    TMP DP  RH WIND       PRES   REMARKS
DOTHAN         CLEAR     56  50  80 SE3       30.13S
OZARK          CLEAR     54  50  85 CALM      30.09S
TROY           CLEAR     50  49  96 CALM      30.10S
EUFAULA        FAIR      50  48  93 CALM      30.09R FOG
$$



USA.gov is the U.S. government's official web portal to all federal, state and local government web resources and services.